[TLELIST] Archives

 

[list_settings.list_name] Current TLEs

November 11th 2009 PST

HST 1 20580U 90037B 09314.21167642 .00000370 00000-0 15550-4 0 4748 2 20580 028.4702 229.2389 0003225 036.9337 323.1509 15.00851973871815 ISS (ZARYA) 1 25544U 98067A 09314.38015076 .00056520 00000-0 35532-3 0 9592 2 25544 051.6437 275.8717 0006256 318.1260 178.5755 15.76131255628982 CXO 1 25867U 99040B 09314.58333333 .00000517 00000-0 10000-3 0 3900 2 25867 066.0933 063.5731 7790503 275.2994 359.3159 00.37808396 5566 ____________________________________________________________________ These 2-Line ...Continue Reading

[list_settings.list_name] Current TLEs

November 10th 2009 PST

HST 1 20580U 90037B 09312.08373704 .00000360 00000-0 14821-4 0 4737 2 20580 028.4703 243.1271 0003188 013.9121 346.1612 15.00851033871496 ISS (ZARYA) 1 25544U 98067A 09313.37024299 .00016804 00000-0 10954-3 0 9533 2 25544 051.6434 281.0665 0006034 312.2419 210.4777 15.76023121628820 CXO 1 25867U 99040B 09306.62500000 +.00000612 +00000-0 +10000-3 0 03897 2 25867 066.0697 063.9575 7773865 275.3594 355.7332 00.37805204005537 ____________________________________________________________________ These 2-Line ...Continue Reading

[list_settings.list_name] Current TLEs

November 9th 2009 PST

HST 1 20580U 90037B 09312.08373704 .00000360 00000-0 14821-4 0 4737 2 20580 028.4703 243.1271 0003188 013.9121 346.1612 15.00851033871496 ISS (ZARYA) 1 25544U 98067A 09312.41468909 .00016780 00000-0 10955-3 0 9474 2 25544 051.6435 285.9872 0006164 308.4545 189.1495 15.75989643628676 CXO 1 25867U 99040B 09306.62500000 +.00000612 +00000-0 +10000-3 0 03897 2 25867 066.0697 063.9575 7773865 275.3594 355.7332 00.37805204005537 ____________________________________________________________________ These 2-Line ...Continue Reading

[list_settings.list_name] Current TLEs

November 8th 2009 PST

HST 1 20580U 90037B 09310.08879152 .00000386 00000-0 16778-4 0 4723 2 20580 028.4702 256.1510 0003250 353.4270 006.6260 15.00850407871190 ISS (ZARYA) 1 25544U 98067A 09311.40448156 .00016974 00000-0 11093-3 0 9394 2 25544 051.6433 291.1895 0006149 304.7288 217.5948 15.75955356628510 CXO 1 25867U 99040B 09306.62500000 +.00000612 +00000-0 +10000-3 0 03897 2 25867 066.0697 063.9575 7773865 275.3594 355.7332 00.37805204005537 ____________________________________________________________________ These 2-Line ...Continue Reading

[list_settings.list_name] Current TLEs

November 7th 2009 PST

HST 1 20580U 90037B 09310.08879152 .00000386 00000-0 16778-4 0 4723 2 20580 028.4702 256.1510 0003250 353.4270 006.6260 15.00850407871190 ISS (ZARYA) 1 25544U 98067A 09310.38977497 .00017753 00000-0 11599-3 0 9325 2 25544 051.6430 296.4136 0006084 300.0388 221.5939 15.75922607628351 CXO 1 25867U 99040B 09306.62500000 +.00000612 +00000-0 +10000-3 0 03897 2 25867 066.0697 063.9575 7773865 275.3594 355.7332 00.37805204005537 ____________________________________________________________________ These 2-Line ...Continue Reading

[list_settings.list_name] Current TLEs

November 6th 2009 PST

HST 1 20580U 90037B 09308.22684229 .00000445 00000-0 21313-4 0 4711 2 20580 028.4701 268.3012 0003343 334.3060 025.7370 15.00849904870912 ISS (ZARYA) 1 25544U 98067A 09309.37159714 .00018619 00000-0 12161-3 0 9289 2 25544 051.6430 301.6571 0006109 295.0950 206.2636 15.75888568628192 CXO 1 25867U 99040B 09306.62500000 +.00000612 +00000-0 +10000-3 0 03897 2 25867 066.0697 063.9575 7773865 275.3594 355.7332 00.37805204005537 ____________________________________________________________________ These 2-Line ...Continue Reading

[list_settings.list_name] Current TLEs

November 5th 2009 PST

HST 1 20580U 90037B 09305.10142533 +.00000458 +00000-0 +22312-4 0 04705 2 20580 028.4705 288.6990 0003327 297.9994 062.0244 15.00848207870445 ISS (ZARYA) 1 25544U 98067A 09308.42158029 .00019563 00000-0 12773-3 0 9190 2 25544 051.6430 306.5491 0006181 291.5819 216.5746 15.75855901628047 CXO 1 25867U 99040B 09306.62500000 +.00000612 +00000-0 +10000-3 0 03897 2 25867 066.0697 063.9575 7773865 275.3594 355.7332 00.37805204005537 ____________________________________________________________________ These 2-Line ...Continue Reading

[list_settings.list_name] Current TLEs

November 4th 2009 PST

HST 1 20580U 90037B 09305.10142533 +.00000458 +00000-0 +22312-4 0 04705 2 20580 028.4705 288.6990 0003327 297.9994 062.0244 15.00848207870445 ISS (ZARYA) 1 25544U 98067A 09307.28674769 .00019925 00000-0 13026-3 0 9124 2 25544 051.6429 312.3926 0006170 286.4238 259.4846 15.75811454627860 CXO 1 25867U 99040B 09306.62500000 +.00000612 +00000-0 +10000-3 0 03897 2 25867 066.0697 063.9575 7773865 275.3594 355.7332 00.37805204005537 ____________________________________________________________________ These 2-Line ...Continue Reading

[list_settings.list_name] Current TLEs

November 3rd 2009 PST

HST 1 20580U 90037B 09303.03997874 .00000468 00000-0 23113-4 0 4690 2 20580 028.4708 302.1530 0003431 273.1763 086.8394 15.00847078870137 ISS (ZARYA) 1 25544U 98067A 09304.84290509 +.00024643 +00000-0 +16075-3 0 08948 2 25544 051.6437 324.9734 0006158 274.3770 078.8732 15.75709477627473 CXO 1 25867U 99040B 09304.00000000 .00000649 00000-0 10000-3 0 3881 2 25867 066.0516 064.0888 7771913 275.3493 358.4006 00.37809361 5521 ____________________________________________________________________ These 2-Line ...Continue Reading

[list_settings.list_name] Current TLEs

November 2nd 2009 PST

HST 1 20580U 90037B 09303.03997874 .00000468 00000-0 23113-4 0 4690 2 20580 028.4708 302.1530 0003431 273.1763 086.8394 15.00847078870137 ISS (ZARYA) 1 25544U 98067A 09303.83062500 +.00023433 +00000-0 +15345-3 0 08860 2 25544 051.6440 330.1824 0006222 269.6367 097.6012 15.75653301627325 CXO 1 25867U 99040B 09304.00000000 .00000649 00000-0 10000-3 0 3881 2 25867 066.0516 064.0888 7771913 275.3493 358.4006 00.37809361 5521 ____________________________________________________________________ These 2-Line ...Continue Reading
  • This mailing list is a public mailing list - anyone may join or leave, at any time.
  • This mailing list is announce-only.

International Space Station (ISS) / Hubble Space Telescope (HST) / Chandra X-Ray Observatory Orbital Data via EMAIL

Privacy Policy:

Private list